KLM1603 EHAM-LIRF

Flight info

Callsign KLM1603
Flight time 1h 50m
Altitude 37000
Route EDUPO Z739 MISGO DCT ASBON DCT TUSUK DCT ULNOK L607 ABUKA DCT TEDGO DCT BATUB DCT TIRUL M738 NATAG DCT LORLO DCT GAVRA DCT RITEB
Aircraft A21N/M-SDE2E3FGHIRWXY/LB1

Departure

Time 2026-04-17 07:42
Airport Amsterdam Airport Schiphol (EHAM)

Arrival

Time 2026-04-17 09:33
Airport Rome–Fiumicino Leonardo da Vinci International Airport (LIRF)
Time Latitude Longitude Altitude Speed Heading
2026-04-17 07:16 52.30894 4.77238 4 ft 0 kts
2026-04-17 07:32 52.30877 4.77238 4 ft 3 kts 353°
2026-04-17 07:32 52.30856 4.77243 4 ft 3 kts 352°
2026-04-17 07:33 52.30836 4.77247 4 ft 3 kts 352°
2026-04-17 07:33 52.30816 4.77252 4 ft 3 kts 352°
2026-04-17 07:33 52.30799 4.77256 4 ft 0 kts 352°
2026-04-17 07:36 52.30809 4.77257 4 ft 5 kts
2026-04-17 07:37 52.30837 4.77320 4 ft 10 kts 89°
2026-04-17 07:37 52.30837 4.77460 4 ft 14 kts 94°
2026-04-17 07:37 52.30863 4.77608 4 ft 16 kts 11°
2026-04-17 07:37 52.30982 4.77618 4 ft 18 kts
2026-04-17 07:38 52.31114 4.77630 4 ft 19 kts
2026-04-17 07:38 52.31254 4.77643 4 ft 21 kts
2026-04-17 07:38 52.31381 4.77658 4 ft 15 kts
2026-04-17 07:38 52.31484 4.77604 4 ft 17 kts 316°
2026-04-17 07:39 52.31557 4.77547 4 ft 13 kts 16°
2026-04-17 07:39 52.31588 4.77686 4 ft 15 kts 89°
2026-04-17 07:39 52.31591 4.77870 5 ft 17 kts 88°
2026-04-17 07:39 52.31541 4.77963 7 ft 13 kts 181°
2026-04-17 07:40 52.31531 4.77963 7 ft 0 kts 185°
2026-04-17 07:41 52.31529 4.77962 7 ft 2 kts 185°
2026-04-17 07:42 52.31253 4.77938 5 ft 79 kts 185°
2026-04-17 07:42 52.30469 4.77861 6 ft 143 kts 183°
2026-04-17 07:42 52.29768 4.77790 221 ft 154 kts 184°
2026-04-17 07:42 52.28698 4.77696 923 ft 154 kts 182°
2026-04-17 07:43 52.27596 4.77859 1555 ft 167 kts 167°
2026-04-17 07:43 52.26178 4.79166 2314 ft 192 kts 136°
2026-04-17 07:43 52.25628 4.81248 2924 ft 213 kts 100°
2026-04-17 07:43 52.25564 4.83738 3605 ft 226 kts 93°
2026-04-17 07:44 52.25509 4.86381 4241 ft 240 kts 93°
2026-04-17 07:44 52.25464 4.88261 4681 ft 251 kts 94°
2026-04-17 07:44 52.25389 4.91166 5306 ft 269 kts 94°
2026-04-17 07:44 52.25305 4.94264 6102 ft 276 kts 93°
2026-04-17 07:45 52.25216 4.97401 7040 ft 278 kts 93°
2026-04-17 07:45 52.25131 5.00573 7916 ft 282 kts 94°
2026-04-17 07:45 52.25040 5.03802 8790 ft 287 kts 94°
2026-04-17 07:45 52.24946 5.07093 9656 ft 293 kts 94°
2026-04-17 07:46 52.24849 5.10455 10472 ft 301 kts 95°
2026-04-17 07:46 52.24741 5.13990 10878 ft 323 kts 95°
2026-04-17 07:46 52.24623 5.17786 11214 ft 346 kts 95°
2026-04-17 07:46 52.24494 5.21828 11529 ft 367 kts 96°
2026-04-17 07:47 52.23982 5.25964 11992 ft 376 kts 112°
2026-04-17 07:47 52.22745 5.29704 12706 ft 377 kts 127°
2026-04-17 07:47 52.21240 5.33160 13472 ft 381 kts 129°
2026-04-17 07:47 52.19673 5.36679 14197 ft 386 kts 129°
2026-04-17 07:48 52.18090 5.40245 14860 ft 390 kts 129°
2026-04-17 07:48 52.16502 5.43865 15490 ft 395 kts 128°
2026-04-17 07:48 52.14906 5.47521 16081 ft 399 kts 128°
2026-04-17 07:48 52.13289 5.51221 16691 ft 403 kts 128°
2026-04-17 07:49 52.11657 5.54965 17299 ft 407 kts 128°
2026-04-17 07:49 52.10008 5.58731 17871 ft 411 kts 128°
2026-04-17 07:49 52.08342 5.62530 18448 ft 414 kts 128°
2026-04-17 07:49 52.06679 5.66294 18939 ft 418 kts 129°
2026-04-17 07:50 52.04847 5.69970 19417 ft 420 kts 133°
2026-04-17 07:50 52.02923 5.73565 19861 ft 423 kts 134°
2026-04-17 07:50 52.00973 5.77168 20301 ft 427 kts 134°
2026-04-17 07:50 51.99015 5.80817 20739 ft 430 kts 134°
2026-04-17 07:51 51.97047 5.84479 21171 ft 433 kts 134°
2026-04-17 07:51 51.95068 5.88188 21592 ft 437 kts 133°
2026-04-17 07:51 51.93068 5.91928 21980 ft 441 kts 133°
2026-04-17 07:51 51.91073 5.95646 22390 ft 445 kts 133°
2026-04-17 07:52 51.89033 5.99438 22813 ft 448 kts 134°
2026-04-17 07:52 51.86975 6.03250 23248 ft 451 kts 133°
2026-04-17 07:52 51.84904 6.07088 23680 ft 454 kts 133°
2026-04-17 07:52 51.82816 6.10935 24056 ft 457 kts 134°
2026-04-17 07:53 51.80708 6.14807 24425 ft 460 kts 134°
2026-04-17 07:53 51.78586 6.18699 24790 ft 463 kts 134°
2026-04-17 07:53 51.76450 6.22609 25145 ft 465 kts 134°
2026-04-17 07:53 51.74327 6.26478 25486 ft 468 kts 134°
2026-04-17 07:54 51.72161 6.30423 25830 ft 471 kts 134°
2026-04-17 07:54 51.69988 6.34381 26141 ft 474 kts 133°
2026-04-17 07:54 51.67796 6.38368 26458 ft 477 kts 133°
2026-04-17 07:54 51.65589 6.42374 26783 ft 479 kts 133°
2026-04-17 07:55 51.63368 6.46396 27099 ft 482 kts 133°
2026-04-17 07:55 51.61136 6.50435 27412 ft 484 kts 133°
2026-04-17 07:55 51.58896 6.54487 27713 ft 486 kts 133°
2026-04-17 07:55 51.56648 6.58545 27993 ft 488 kts 133°
2026-04-17 07:56 51.54419 6.62562 28316 ft 488 kts 133°
2026-04-17 07:56 51.52157 6.66633 28683 ft 488 kts 133°
2026-04-17 07:56 51.49894 6.70697 29047 ft 488 kts 133°
2026-04-17 07:56 51.47635 6.74747 29433 ft 488 kts 133°
2026-04-17 07:57 51.45372 6.78808 29739 ft 489 kts 133°
2026-04-17 07:57 51.43104 6.82866 30094 ft 488 kts 133°
2026-04-17 07:57 51.40770 6.86815 30420 ft 487 kts 139°
2026-04-17 07:57 51.38119 6.90034 30709 ft 484 kts 149°
2026-04-17 07:58 51.35280 6.92911 31033 ft 482 kts 150°
2026-04-17 07:58 51.32435 6.95729 31372 ft 481 kts 150°
2026-04-17 07:58 51.29592 6.98551 31685 ft 481 kts 150°
2026-04-17 07:58 51.26753 7.01387 31985 ft 481 kts 150°
2026-04-17 07:59 51.23920 7.04226 32281 ft 481 kts 150°
2026-04-17 07:59 51.21091 7.07056 32600 ft 480 kts 150°
2026-04-17 07:59 51.18260 7.09888 32871 ft 480 kts 150°
2026-04-17 07:59 51.15430 7.12713 33160 ft 480 kts 150°
2026-04-17 08:00 51.12637 7.15498 33371 ft 481 kts 149°
2026-04-17 08:00 51.09806 7.18317 33634 ft 480 kts 149°
2026-04-17 08:00 51.06974 7.21133 33929 ft 479 kts 149°
2026-04-17 08:00 51.04147 7.23937 34181 ft 479 kts 149°
2026-04-17 08:01 51.01319 7.26739 34400 ft 479 kts 149°
2026-04-17 08:01 50.98490 7.29537 34602 ft 479 kts 149°
2026-04-17 08:01 50.95664 7.32331 34808 ft 478 kts 150°
2026-04-17 08:01 50.92840 7.35117 34998 ft 478 kts 150°
2026-04-17 08:02 50.90057 7.37861 35180 ft 478 kts 150°
2026-04-17 08:02 50.87233 7.40641 35360 ft 477 kts 150°
2026-04-17 08:02 50.84409 7.43413 35539 ft 477 kts 150°
2026-04-17 08:02 50.81592 7.46175 35727 ft 477 kts 150°
2026-04-17 08:03 50.78773 7.48937 35893 ft 477 kts 150°
2026-04-17 08:03 50.75952 7.51698 36060 ft 477 kts 150°
2026-04-17 08:03 50.73129 7.54457 36217 ft 478 kts 150°
2026-04-17 08:03 50.70337 7.57303 36397 ft 478 kts 149°
2026-04-17 08:04 50.67561 7.60180 36587 ft 478 kts 149°
2026-04-17 08:04 50.64823 7.63018 36763 ft 477 kts 149°
2026-04-17 08:04 50.62047 7.65893 36916 ft 477 kts 149°
2026-04-17 08:04 50.59274 7.68756 37112 ft 476 kts 149°
2026-04-17 08:05 50.56507 7.71603 37281 ft 476 kts 149°
2026-04-17 08:05 50.53732 7.74452 37302 ft 476 kts 149°
2026-04-17 08:05 50.48193 7.80135 37263 ft 475 kts 149°
2026-04-17 08:06 50.42695 7.85764 37261 ft 475 kts 150°
2026-04-17 08:06 50.37150 7.91449 37254 ft 477 kts 149°
2026-04-17 08:07 50.31598 7.97109 37275 ft 476 kts 150°
2026-04-17 08:07 50.26039 8.02731 37263 ft 476 kts 150°
2026-04-17 08:08 50.20536 8.08329 37260 ft 476 kts 150°
2026-04-17 08:08 50.14983 8.13955 37259 ft 476 kts 150°
2026-04-17 08:09 50.09342 8.19319 37256 ft 474 kts 152°
2026-04-17 08:09 50.03665 8.24574 37269 ft 474 kts 152°
2026-04-17 08:10 49.97987 8.29813 37264 ft 475 kts 152°
2026-04-17 08:10 49.92335 8.35019 37270 ft 475 kts 152°
2026-04-17 08:11 49.86651 8.40249 37253 ft 474 kts 151°
2026-04-17 08:11 49.81511 8.46673 37253 ft 477 kts 138°
2026-04-17 08:12 49.76703 8.53763 37252 ft 477 kts 138°
2026-04-17 08:12 49.71501 8.60051 37255 ft 473 kts 154°
2026-04-17 08:13 49.68526 8.61927 37254 ft 468 kts 168°
2026-04-17 08:13 49.65349 8.62920 37270 ft 464 kts 174°
2026-04-17 08:14 49.55819 8.65344 37260 ft 463 kts 173°
2026-04-17 08:14 49.49473 8.67090 37265 ft 463 kts 173°
2026-04-17 08:15 49.43292 8.70046 37269 ft 470 kts 159°
2026-04-17 08:15 49.37351 8.74245 37256 ft 469 kts 158°
2026-04-17 08:16 49.31451 8.78389 37247 ft 469 kts 158°
2026-04-17 08:16 49.25504 8.82509 37239 ft 469 kts 158°
2026-04-17 08:17 49.19553 8.86616 37235 ft 469 kts 158°
2026-04-17 08:17 49.13638 8.90689 37229 ft 470 kts 158°
2026-04-17 08:18 49.07685 8.94777 37228 ft 469 kts 158°
2026-04-17 08:18 49.01724 8.98860 37231 ft 470 kts 158°
2026-04-17 08:19 48.95764 9.02932 37227 ft 469 kts 158°
2026-04-17 08:19 48.89810 9.06987 37225 ft 469 kts 158°
2026-04-17 08:20 48.83894 9.11007 37229 ft 469 kts 158°
2026-04-17 08:20 48.77936 9.15044 37229 ft 469 kts 158°
2026-04-17 08:21 48.71984 9.19069 37234 ft 470 kts 158°
2026-04-17 08:21 48.66003 9.23103 37230 ft 471 kts 158°
2026-04-17 08:22 48.60002 9.26862 37227 ft 469 kts 163°
2026-04-17 08:22 48.53832 9.30035 37229 ft 469 kts 164°
2026-04-17 08:23 48.47653 9.33191 37223 ft 469 kts 163°
2026-04-17 08:23 48.41473 9.36349 37221 ft 469 kts 163°
2026-04-17 08:24 48.35299 9.39499 37227 ft 469 kts 163°
2026-04-17 08:24 48.29160 9.42620 37231 ft 469 kts 163°
2026-04-17 08:25 48.22986 9.45752 37239 ft 468 kts 163°
2026-04-17 08:25 48.16807 9.48877 37243 ft 469 kts 163°
2026-04-17 08:26 48.10621 9.51998 37240 ft 469 kts 163°
2026-04-17 08:26 48.04479 9.55091 37241 ft 469 kts 163°
2026-04-17 08:27 47.98674 9.59555 37242 ft 472 kts 147°
2026-04-17 08:27 47.93272 9.65146 37240 ft 473 kts 146°
2026-04-17 08:28 47.87861 9.70709 37242 ft 473 kts 147°
2026-04-17 08:28 47.82467 9.76200 37244 ft 473 kts 147°
2026-04-17 08:29 47.77038 9.81731 37245 ft 473 kts 147°
2026-04-17 08:29 47.71599 9.87238 37248 ft 473 kts 147°
2026-04-17 08:30 47.66157 9.92735 37244 ft 473 kts 147°
2026-04-17 08:30 47.60754 9.98183 37240 ft 473 kts 147°
2026-04-17 08:31 47.55308 10.03653 37237 ft 473 kts 147°
2026-04-17 08:31 47.49860 10.09107 37243 ft 473 kts 147°
2026-04-17 08:32 47.44405 10.14570 37241 ft 474 kts 147°
2026-04-17 08:32 47.38977 10.19982 37247 ft 474 kts 147°
2026-04-17 08:33 47.33511 10.25423 37237 ft 474 kts 147°
2026-04-17 08:33 47.28044 10.30845 37248 ft 473 kts 147°
2026-04-17 08:34 47.22580 10.36251 37259 ft 473 kts 147°
2026-04-17 08:34 47.17153 10.41612 37266 ft 474 kts 147°
2026-04-17 08:35 47.11675 10.47004 37267 ft 474 kts 147°
2026-04-17 08:35 47.06137 10.52250 37273 ft 473 kts 153°
2026-04-17 08:36 46.99990 10.55565 37274 ft 470 kts 165°
2026-04-17 08:36 46.93764 10.58293 37282 ft 470 kts 165°
2026-04-17 08:37 46.87511 10.61090 37277 ft 470 kts 165°
2026-04-17 08:37 46.81271 10.63902 37281 ft 469 kts 165°
2026-04-17 08:38 46.75032 10.66706 37286 ft 469 kts 164°
2026-04-17 08:38 46.68753 10.69384 37287 ft 470 kts 166°
2026-04-17 08:39 46.62514 10.71936 37278 ft 469 kts 166°
2026-04-17 08:39 46.56228 10.74501 37281 ft 469 kts 166°
2026-04-17 08:40 46.49935 10.77066 37280 ft 470 kts 166°
2026-04-17 08:40 46.43647 10.79620 37272 ft 468 kts 166°
2026-04-17 08:41 46.37426 10.82144 37279 ft 469 kts 166°
2026-04-17 08:41 46.31142 10.84683 37282 ft 468 kts 166°
2026-04-17 08:42 46.24866 10.87217 37293 ft 469 kts 166°
2026-04-17 08:42 46.18576 10.89749 37284 ft 469 kts 166°
2026-04-17 08:43 46.12327 10.92257 37272 ft 469 kts 166°
2026-04-17 08:43 46.06041 10.94775 37277 ft 469 kts 166°
2026-04-17 08:44 45.99754 10.97288 37260 ft 470 kts 166°
2026-04-17 08:44 45.93448 10.99802 37242 ft 470 kts 166°
2026-04-17 08:45 45.87137 11.02313 37225 ft 470 kts 166°
2026-04-17 08:45 45.80872 11.04799 37223 ft 470 kts 166°
2026-04-17 08:46 45.74566 11.07296 37206 ft 470 kts 166°
2026-04-17 08:46 45.68250 11.09791 37188 ft 471 kts 166°
2026-04-17 08:47 45.61926 11.12282 37177 ft 471 kts 166°
2026-04-17 08:47 45.55677 11.14738 37184 ft 469 kts 166°
2026-04-17 08:48 45.49386 11.17207 37189 ft 469 kts 166°
2026-04-17 08:48 45.43089 11.19672 37196 ft 469 kts 166°
2026-04-17 08:49 45.36840 11.22112 37193 ft 468 kts 166°
2026-04-17 08:49 45.30553 11.24560 37179 ft 468 kts 166°
2026-04-17 08:50 45.24273 11.27001 37198 ft 468 kts 166°
2026-04-17 08:50 45.17987 11.29438 37206 ft 468 kts 166°
2026-04-17 08:51 45.11699 11.31870 37222 ft 468 kts 166°
2026-04-17 08:51 45.05461 11.34278 37226 ft 468 kts 166°
2026-04-17 08:52 44.99174 11.36700 37228 ft 468 kts 166°
2026-04-17 08:52 44.92888 11.39115 37237 ft 468 kts 166°
2026-04-17 08:53 44.86601 11.41525 37242 ft 468 kts 166°
2026-04-17 08:53 44.80314 11.43928 37225 ft 468 kts 166°
2026-04-17 08:54 44.74079 11.46309 37209 ft 468 kts 166°
2026-04-17 08:54 44.67795 11.48702 37202 ft 468 kts 166°
2026-04-17 08:55 44.61508 11.51090 37198 ft 468 kts 166°
2026-04-17 08:55 44.55275 11.53454 37193 ft 467 kts 166°
2026-04-17 08:56 44.48993 11.55829 37200 ft 467 kts 166°
2026-04-17 08:56 44.42713 11.58200 37212 ft 467 kts 166°
2026-04-17 08:57 44.36433 11.60567 37217 ft 467 kts 166°
2026-04-17 08:57 44.30192 11.62910 37234 ft 467 kts 166°
2026-04-17 08:58 44.23920 11.65261 37231 ft 467 kts 166°
2026-04-17 08:58 44.17636 11.67611 37223 ft 467 kts 166°
2026-04-17 08:59 44.11356 11.69956 37212 ft 467 kts 166°
2026-04-17 08:59 44.05084 11.72291 37195 ft 467 kts 166°
2026-04-17 09:00 43.98848 11.74608 37169 ft 467 kts 166°
2026-04-17 09:00 43.92578 11.76933 37168 ft 466 kts 166°
2026-04-17 09:01 43.86314 11.79250 37176 ft 466 kts 166°
2026-04-17 09:01 43.80055 11.81562 37156 ft 466 kts 166°
2026-04-17 09:02 43.73807 11.83686 37162 ft 465 kts 167°
2026-04-17 09:02 43.67496 11.85699 37158 ft 466 kts 167°
2026-04-17 09:03 43.61184 11.87709 37157 ft 465 kts 167°
2026-04-17 09:03 43.54880 11.89717 37158 ft 465 kts 167°
2026-04-17 09:04 43.48598 11.91712 36650 ft 461 kts 167°
2026-04-17 09:04 43.45487 11.92698 35573 ft 469 kts 167°
2026-04-17 09:04 43.42291 11.93709 34737 ft 472 kts 167°
2026-04-17 09:04 43.39086 11.94723 34007 ft 473 kts 167°
2026-04-17 09:05 43.35874 11.95736 33241 ft 474 kts 167°
2026-04-17 09:05 43.32662 11.96752 32560 ft 474 kts 167°
2026-04-17 09:05 43.29450 11.97765 31842 ft 474 kts 167°
2026-04-17 09:05 43.26235 11.98776 31110 ft 474 kts 167°
2026-04-17 09:06 43.23059 11.99775 30399 ft 475 kts 167°
2026-04-17 09:06 43.19835 12.00787 29583 ft 476 kts 167°
2026-04-17 09:06 43.16619 12.01796 28821 ft 474 kts 166°
2026-04-17 09:06 43.13398 12.02807 28134 ft 474 kts 166°
2026-04-17 09:07 43.10196 12.03810 27481 ft 470 kts 166°
2026-04-17 09:07 43.07017 12.04805 26815 ft 467 kts 166°
2026-04-17 09:07 43.03855 12.05793 26143 ft 465 kts 166°
2026-04-17 09:07 43.00712 12.06776 25497 ft 462 kts 166°
2026-04-17 09:08 42.97589 12.07751 24854 ft 459 kts 166°
2026-04-17 09:08 42.94524 12.08705 24203 ft 457 kts 166°
2026-04-17 09:08 42.91432 12.09670 23512 ft 455 kts 166°
2026-04-17 09:08 42.88360 12.10625 22771 ft 452 kts 166°
2026-04-17 09:09 42.85296 12.11576 22037 ft 448 kts 166°
2026-04-17 09:09 42.82287 12.12508 21346 ft 441 kts 166°
2026-04-17 09:09 42.79316 12.13430 20694 ft 435 kts 166°
2026-04-17 09:09 42.76390 12.14335 20070 ft 428 kts 166°
2026-04-17 09:10 42.70684 12.16119 19181 ft 412 kts 164°
2026-04-17 09:10 42.68096 12.17538 19091 ft 407 kts 148°
2026-04-17 09:10 42.65671 12.19538 19086 ft 408 kts 147°
2026-04-17 09:11 42.63256 12.21562 19000 ft 408 kts 147°
2026-04-17 09:11 42.60839 12.23547 18705 ft 405 kts 147°
2026-04-17 09:11 42.58426 12.25496 18211 ft 403 kts 148°
2026-04-17 09:11 42.56007 12.27428 17624 ft 403 kts 148°
2026-04-17 09:12 42.53590 12.29354 17027 ft 403 kts 148°
2026-04-17 09:12 42.51174 12.31283 16447 ft 403 kts 148°
2026-04-17 09:12 42.48763 12.33203 15895 ft 402 kts 148°
2026-04-17 09:12 42.46380 12.35101 15355 ft 402 kts 148°
2026-04-17 09:13 42.43970 12.37022 14807 ft 402 kts 148°
2026-04-17 09:13 42.41558 12.38940 14266 ft 402 kts 148°
2026-04-17 09:13 42.39163 12.40840 13701 ft 397 kts 148°
2026-04-17 09:13 42.36790 12.42713 13114 ft 390 kts 150°
2026-04-17 09:14 42.34342 12.44114 12773 ft 377 kts 162°
2026-04-17 09:14 42.31874 12.45116 12533 ft 363 kts 163°
2026-04-17 09:14 42.29501 12.46084 12329 ft 350 kts 162°
2026-04-17 09:14 42.27218 12.47031 12156 ft 337 kts 162°
2026-04-17 09:15 42.25044 12.47916 11994 ft 325 kts 165°
2026-04-17 09:15 42.22849 12.48110 11815 ft 312 kts 190°
2026-04-17 09:15 42.20911 12.47026 11643 ft 296 kts 219°
2026-04-17 09:15 42.19673 12.44945 11506 ft 279 kts 250°
2026-04-17 09:16 42.19318 12.42473 11358 ft 264 kts 268°
2026-04-17 09:16 42.19172 12.40024 10958 ft 262 kts 265°
2026-04-17 09:16 42.18968 12.37578 10496 ft 261 kts 272°
2026-04-17 09:16 42.19293 12.35248 10059 ft 255 kts 297°
2026-04-17 09:17 42.20354 12.33399 9561 ft 249 kts 324°
2026-04-17 09:17 42.21888 12.32401 9092 ft 245 kts 344°
2026-04-17 09:17 42.23517 12.31821 8809 ft 240 kts 346°
2026-04-17 09:17 42.25147 12.31241 8653 ft 243 kts 345°
2026-04-17 09:18 42.26773 12.30622 8519 ft 242 kts 345°
2026-04-17 09:18 42.28388 12.29980 8391 ft 242 kts 344°
2026-04-17 09:18 42.29983 12.29328 8283 ft 236 kts 344°
2026-04-17 09:18 42.31509 12.28694 8160 ft 232 kts 343°
2026-04-17 09:19 42.33049 12.28049 8035 ft 231 kts 344°
2026-04-17 09:19 42.34590 12.27402 7919 ft 232 kts 343°
2026-04-17 09:19 42.36128 12.26752 7801 ft 231 kts 343°
2026-04-17 09:19 42.37654 12.26111 7682 ft 228 kts 344°
2026-04-17 09:20 42.39158 12.25473 7570 ft 224 kts 342°
2026-04-17 09:20 42.40530 12.24471 7439 ft 230 kts 320°
2026-04-17 09:20 42.41436 12.22681 7327 ft 236 kts 291°
2026-04-17 09:20 42.41592 12.20495 7208 ft 242 kts 263°
2026-04-17 09:21 42.41130 12.18285 7109 ft 246 kts 254°
2026-04-17 09:21 42.40563 12.16101 7002 ft 245 kts 254°
2026-04-17 09:21 42.40014 12.13935 6874 ft 242 kts 254°
2026-04-17 09:21 42.39366 12.11829 6765 ft 246 kts 239°
2026-04-17 09:22 42.38111 12.10288 6727 ft 249 kts 205°
2026-04-17 09:22 42.36433 12.09928 6641 ft 246 kts 170°
2026-04-17 09:22 42.34814 12.10533 6546 ft 244 kts 159°
2026-04-17 09:22 42.33218 12.11309 6427 ft 243 kts 159°
2026-04-17 09:23 42.31620 12.12062 6304 ft 243 kts 159°
2026-04-17 09:23 42.30024 12.12785 6191 ft 242 kts 160°
2026-04-17 09:23 42.28424 12.13492 6085 ft 242 kts 161°
2026-04-17 09:23 42.26823 12.14185 6080 ft 241 kts 161°
2026-04-17 09:24 42.25221 12.14875 6091 ft 242 kts 160°
2026-04-17 09:24 42.23634 12.15574 5971 ft 240 kts 160°
2026-04-17 09:24 42.22045 12.16267 5757 ft 240 kts 160°
2026-04-17 09:24 42.20454 12.16953 5427 ft 241 kts 161°
2026-04-17 09:25 42.18881 12.17624 5174 ft 239 kts 161°
2026-04-17 09:25 42.17309 12.18294 5056 ft 233 kts 161°
2026-04-17 09:25 42.15798 12.18930 4802 ft 222 kts 162°
2026-04-17 09:25 42.14300 12.19138 4566 ft 216 kts 186°
2026-04-17 09:26 42.12843 12.18666 4374 ft 216 kts 196°
2026-04-17 09:26 42.11432 12.18023 4155 ft 211 kts 198°
2026-04-17 09:26 42.10082 12.17419 4182 ft 201 kts 193°
2026-04-17 09:26 42.08725 12.17098 4206 ft 201 kts 182°
2026-04-17 09:27 42.07330 12.17114 4209 ft 200 kts 172°
2026-04-17 09:27 42.05959 12.17382 4210 ft 198 kts 165°
2026-04-17 09:27 42.04617 12.17797 4154 ft 198 kts 162°
2026-04-17 09:27 42.03303 12.18311 3981 ft 195 kts 159°
2026-04-17 09:28 42.02006 12.18848 3544 ft 194 kts 159°
2026-04-17 09:28 42.00727 12.19385 3305 ft 191 kts 159°
2026-04-17 09:28 41.99457 12.19919 3060 ft 192 kts 159°
2026-04-17 09:28 41.98184 12.20455 2798 ft 192 kts 159°
2026-04-17 09:29 41.96895 12.20996 2639 ft 193 kts 159°
2026-04-17 09:29 41.95709 12.21495 2623 ft 174 kts 160°
2026-04-17 09:29 41.94595 12.21987 2349 ft 160 kts 159°
2026-04-17 09:29 41.93616 12.22397 2063 ft 140 kts 162°
2026-04-17 09:30 41.92679 12.22747 1768 ft 139 kts 161°
2026-04-17 09:30 41.91761 12.23150 1450 ft 139 kts 158°
2026-04-17 09:30 41.90851 12.23583 1343 ft 139 kts 159°
2026-04-17 09:30 41.89929 12.23969 1212 ft 139 kts 162°
2026-04-17 09:31 41.88997 12.24321 1010 ft 139 kts 162°
2026-04-17 09:31 41.88089 12.24699 828 ft 138 kts 160°
2026-04-17 09:31 41.87176 12.25105 616 ft 138 kts 161°
2026-04-17 09:31 41.86257 12.25480 452 ft 138 kts 162°
2026-04-17 09:32 41.85336 12.25844 244 ft 139 kts 162°
2026-04-17 09:32 41.84414 12.26233 65 ft 139 kts 162°
2026-04-17 09:32 41.83533 12.26593 21 ft 122 kts 162°
2026-04-17 09:32 41.82890 12.26868 18 ft 63 kts 162°
2026-04-17 09:33 41.82510 12.27025 17 ft 52 kts 163°
2026-04-17 09:33 41.82228 12.27137 15 ft 34 kts 172°
2026-04-17 09:33 41.82001 12.27120 17 ft 23 kts 191°
2026-04-17 09:33 41.81837 12.27072 17 ft 25 kts 193°
2026-04-17 09:34 41.81656 12.27060 17 ft 27 kts 163°
2026-04-17 09:34 41.81469 12.27137 17 ft 29 kts 163°
2026-04-17 09:34 41.81269 12.27219 17 ft 31 kts 163°
2026-04-17 09:34 41.81058 12.27306 18 ft 33 kts 162°
2026-04-17 09:35 41.80874 12.27342 18 ft 27 kts 192°
2026-04-17 09:35 41.80691 12.27280 18 ft 28 kts 224°
2026-04-17 09:35 41.80610 12.27045 19 ft 30 kts 251°
2026-04-17 09:35 41.80534 12.26780 19 ft 31 kts 248°
2026-04-17 09:36 41.80473 12.26561 23 ft 22 kts 250°
2026-04-17 09:36 41.80422 12.26378 20 ft 17 kts 235°
2026-04-17 09:36 41.80306 12.26385 20 ft 19 kts 159°
2026-04-17 09:36 41.80174 12.26378 19 ft 21 kts 204°
2026-04-17 09:37 41.80034 12.26296 19 ft 23 kts 205°
2026-04-17 09:37 41.79889 12.26204 19 ft 23 kts 205°
2026-04-17 09:37 41.79774 12.26127 20 ft 18 kts 233°
2026-04-17 09:37 41.79802 12.25973 19 ft 20 kts 299°
2026-04-17 09:38 41.79861 12.25796 20 ft 22 kts 294°
2026-04-17 09:38 41.79923 12.25620 19 ft 17 kts 296°
2026-04-17 09:38 41.79930 12.25539 19 ft 11 kts 227°
2026-04-17 09:38 41.79857 12.25483 19 ft 13 kts 204°
2026-04-17 09:39 41.79805 12.25486 20 ft 3 kts 110°
2026-04-17 09:39 41.79801 12.25500 19 ft 3 kts 112°
2026-04-17 09:39 41.79794 12.25523 20 ft 0 kts 115°